Preview of NWS' New Version of Forecast
This preview is not operational and should not be used for support decisions.

Regional Weather Roundup (RWR)

Issued by Gray - Portland, ME (GYX)

                            
688 
ASUS41 KGYX 201305
RWRGYX
WEATHER ROUNDUP FOR MAINE AND NEW HAMPSHIRE
NATIONAL WEATHER SERVICE GRAY ME
900 AM EDT FRI APR 20 2018

MEZ002-005-006-010-012-015-018-020-021-024-026-027-029-201400-
MAINE
  
CITY           SKY/WX    TMP DP  RH WIND       PRES   REMARKS
PORTLAND       FAIR      44  32  62 NW18G26   29.90R                  
SANFORD        FAIR      42  28  57 W14G22    29.92R                  
BAR HARBOR     CLOUDY    39  36  89 NW8       29.82R                  
WISCASSET      FAIR      43  34  70 VRB5      29.88R                  
ROCKLAND       CLOUDY    41  34  76 VRB7G16   29.85R                  
FRYEBURG       FAIR      42  27  55 W8        29.91R                  
LEWISTONAUBURN FAIR      42  29  59 NW12G21   29.89R                  
AUGUSTA        CLOUDY    41  30  65 NW14G21   29.87R                  
WATERVILLE     CLOUDY    41  32  70 NW14      29.84R                  
BANGOR         LGT RAIN  39  36  89 NW13      29.84R                  
GREENVILLE       N/A     32  31  96 NW18G25   29.80R                  
MILLINOCKET    LGT RAIN  36  33  89 NW5       29.85R FOG              
HOULTON        LGT SNOW  34  32  92 N9        29.82R FOG              
PRESQUE ISLE   LGT RAIN  35  31  85 N12       29.85R                  
FRENCHVILLE    LGT SNOW  35  30  82 NW10      29.83R                  
CARIBOU        LGT SNOW  35  30  82 N8        29.83R                  
$$

NHZ002-005-008-009-011-012-014-201400-
NEW HAMPSHIRE
  
CITY           SKY/WX    TMP DP  RH WIND       PRES   REMARKS
PORTSMOUTH     MOSUNNY   43  27  53 NW17G28   29.92R                  
ROCHESTER      FAIR      42  27  55 NW16G28   29.92R                  
NASHUA         PTSUNNY   41  25  53 NW18      29.98R                  
MANCHESTER     PTSUNNY   43  24  47 NW22G28   29.96R                  
CONCORD        FAIR      41  26  55 NW23G32   29.97R                  
LACONIA        PTSUNNY   36  26  67 NW9G17    29.97R                  
PLYMOUTH       FLURRIES  35  28  76 W12G23    29.99R                  
BERLIN         CLOUDY    34  28  79 W8        29.92R                  
WHITEFIELD     LGT SNOW  32  27  81 W5        29.97R                  
JAFFREY        CLOUDY    35  25  66 N12G20    29.99R                  
KEENE          CLOUDY    37  24  59 NW10G17   30.03R                  
LEBANON        CLOUDY    37  23  56 NW8       30.02R                  
MT WASHINGTON  SNOW      14  14 100 NW39G48     N/A  VSB 0   WCI  -9  
$$

VTZ005-007-008-201400-
VERMONT
  
CITY           SKY/WX    TMP DP  RH WIND       PRES   REMARKS
ST JOHNSBURY     N/A     33  27  78 MISG      29.99R                  
MONTPELIER     LGT SNOW  30  26  85 NW20G28   30.04R FOG     WCI  17  
BURLINGTON     LGT SNOW  33  28  81 NW10      30.10R                  
$$

MAZ007-012-024-CTZ003-RIZ002-NYZ038-NYZ072-201400-
SOUTHERN NEW ENGLAND AND NY
  
CITY           SKY/WX    TMP DP  RH WIND       PRES   REMARKS
BOSTON         PTSUNNY   41  26  55 NW21G31   29.97R                  
WORCESTER      FAIR      35  23  61 NW23G32   29.97R                  
NANTUCKET      FAIR      41  31  67 NW22G28   29.97R                  
PROVIDENCE     PTSUNNY   40  27  59 NW16G28   30.01R                  
HARTFORD       FAIR      40  23  50 NW20G26   30.07R                  
ALBANY         CLOUDY    36  22  56 W16G23    30.14R                  
NEW YORK CITY  FAIR      40  23  50 NW22G31   30.14R                  
$$

ANZ081-ANZ082-ANZ150-NHZ014-MEZ023>029-201400-
COASTAL MARINE OBSERVATIONS
  
STATION/POSITION TIME  TEMP    WIND        PRES    WAVE
                       AIR SEA DIR/SP/G            HT/PER
                 (UTC) (F)     (DEG/KT/KT) (MB)    (FT/S)
MOUNT DESERT ROC 1200   37     290/ 19/ 21 1009.2R
MATINICUS ROCK   1200   38     310/ 19/ 21 1009.7R
ISLE OF SHOALS   1200   38     300/ 23/ 26 1012.1R
JEFFREYS LEDGE   1236      41                N/A     5/ 5
CASHES LEDGE BUO 1150   40 40              1010.6    5/ 5
$$

.............KEY..............
   WCI - WIND CHILL
   TC  - TEMPERATURE IN CELSIUS
   VSB - VISIBILITY IN MILES
   HX  - HEAT INDEX
   FAIR- INDICATES FEW OR NO CLOUDS BELOW 12,000 FT, WITH NO 
         SIGNIFICANT WEATHER AND/OR OBSTRUCTIONS TO VISIBILITY.